Location: Azul
(36.7830°S, 59.8500°W)
Time: 03:26:33
(UTC-03:00)

Hubble Space Telescope - Visible Passes

Search period start: 27 May 2020 00:00
Search period end: 06 June 2020 00:00
Orbit: 536 x 540 km, 28.5° (Epoch: 26 May)

Date Brightness Start Highest point End Pass type
(mag) Time Alt. Az. Time Alt. Az. Time Alt. Az.
27 May 3.3 07:14:51 10° NNW 07:17:40 18° NNE 07:20:30 10° ENE visible
28 May 3.1 07:03:50 10° NW 07:06:53 20° NNE 07:09:57 10° ENE visible
29 May 2.9 06:52:54 10° NW 06:56:07 22° N 06:59:21 10° ENE visible
30 May 2.7 06:42:02 10° NW 06:45:22 23° N 06:48:42 10° ENE visible
31 May 2.6 06:32:10 15° NW 06:34:36 25° N 06:38:02 10° ENE visible
01 Jun 2.5 06:22:15 20° NNW 06:23:51 25° N 06:27:19 10° ENE visible
02 Jun 2.3 06:12:16 24° NNW 06:13:06 26° N 06:16:34 10° ENE visible
03 Jun 2.3 06:02:16 25° N 06:02:21 25° N 06:05:48 10° NE visible
04 Jun 2.6 05:52:14 24° N 05:52:14 24° N 05:55:00 10° NE visible
04 Jun 3.2 07:29:54 10° NW 07:32:11 14° NNW 07:34:29 10° NNE visible
05 Jun 2.9 05:42:11 20° NNE 05:42:11 20° NNE 05:44:10 10° NE visible
05 Jun 3.2 07:19:43 10° NW 07:21:24 12° NNW 07:23:04 10° N visible
